Weather History for Sevilla, Spain

Change the Weather History Date:

Saturday, August 14, 2010

  Actual Average Record
Temperature  
Mean Temperature 82 °F -  
Max Temperature 96 °F 89 °F 105 °F (2005)
Min Temperature 69 °F 64 °F 62 °F (2007)
Cooling Degree Days 18    
Growing Degree Days 32 (Base 50)    
Moisture  
Dew Point 63 °F    
Average Humidity 58    
Maximum Humidity 88    
Minimum Humidity 20    
Precipitation  
Precipitation 0.00 in - - ()
Sea Level Pressure  
Sea Level Pressure 29.86 in    
Wind  
Wind Speed 3 mph ()    
Max Wind Speed 12 mph    
Max Gust Speed -    
Visibility 6.1 miles    
Events      
Averages and records for this station are not official NWS values.
T = Trace of Precipitation, MM = Missing Value Source: Averaged Metar Reports

Daily Weather History Graph

Daily Weather History Graph

Search for Another Location

Airport:

Trip Planner

Search our weather history database for the weather conditions in past years. The results will help you decide how hot, cold, wet, or windy it might be!

Date:

Astronomy

Aug. 14, 2010 Rise Set
Actual Time 7:38 AM CEST 9:17 PM CEST
Civil Twilight 7:10 AM CEST 9:45 PM CEST
Nautical Twilight 6:37 AM CEST 10:18 PM CEST
Astronomical Twilight 6:01 AM CEST 10:54 PM CEST
Moon 12:48 PM CEST (8/14) 11:39 PM CEST (8/14)
Length of Visible Light 14h 34m
Length of Day
13h 38m
Waxing Crescent, 25% of the Moon is Illuminated
Aug 14
Waxing Crescent
Aug 16
First Quarter
Aug 24
Full
Sep 1
Last Quarter
Sep 8
New

Hourly Weather History & Observations

Time (CEST) Temp. Heat Index Dew Point Humidity Pressure Visibility Wind Dir Wind Speed Gust Speed Precip Events Conditions
12:00 AM 77.0 °F - 64.4 °F 65% 29.86 in - SSW 5.8 mph - N/A   Clear
12:30 AM 77.0 °F - 64.4 °F 65% 29.86 in - SSW 3.5 mph - N/A   Clear
1:00 AM 75.2 °F - 64.4 °F 69% 29.86 in - SSW 4.6 mph - N/A   Clear
1:30 AM 75.2 °F - 66.2 °F 73% 29.86 in - SSW 8.1 mph - N/A   Clear
4:30 AM 71.6 °F - 66.2 °F 83% 29.86 in - Variable 2.3 mph - N/A   Clear
5:00 AM 71.6 °F - 66.2 °F 83% 29.86 in - South 3.5 mph - N/A   Clear
5:30 AM 69.8 °F - 66.2 °F 88% 29.86 in - Variable 1.2 mph - N/A   Clear
6:00 AM 69.8 °F - 66.2 °F 88% 29.86 in - Calm Calm - N/A   Clear
6:30 AM 69.8 °F - 66.2 °F 88% 29.86 in - Calm Calm - N/A   Clear
7:00 AM 69.8 °F - 66.2 °F 88% 29.89 in 4.3 mi NNE 3.5 mph - N/A   Unknown
7:30 AM 69.8 °F - 66.2 °F 88% 29.89 in 5.0 mi NNE 3.5 mph - N/A   Unknown
8:00 AM 69.8 °F - 66.2 °F 88% 29.89 in - Calm Calm - N/A   Clear
8:30 AM 71.6 °F - 66.2 °F 83% 29.89 in - Variable 1.2 mph - N/A   Clear
9:00 AM 73.4 °F - 66.2 °F 78% 29.89 in - NE 1.2 mph - N/A   Clear
9:30 AM 75.2 °F - 66.2 °F 73% 29.89 in - NE 3.5 mph - N/A   Clear
10:00 AM 75.2 °F - 66.2 °F 73% 29.89 in - Variable 2.3 mph - N/A   Clear
10:30 AM 77.0 °F - 68.0 °F 74% 29.92 in - North 1.2 mph - N/A   Clear
11:00 AM 78.8 °F - 68.0 °F 69% 29.92 in 6.2 mi Calm Calm - N/A   Partly Cloudy
11:30 AM 80.6 °F 83.2 °F 68.0 °F 65% 29.92 in 6.2 mi Calm Calm - N/A   Partly Cloudy
12:00 PM 82.4 °F 85.4 °F 68.0 °F 62% 29.92 in 6.2 mi East 1.2 mph - N/A   Partly Cloudy
12:30 PM 84.2 °F 87.3 °F 68.0 °F 58% 29.92 in 6.2 mi ESE 1.2 mph - N/A   Partly Cloudy
1:00 PM 84.2 °F 87.3 °F 68.0 °F 58% 29.92 in 6.2 mi Variable 2.3 mph - N/A   Partly Cloudy
1:30 PM 86.0 °F 88.2 °F 66.2 °F 51% 29.89 in 6.2 mi Variable 2.3 mph - N/A   Partly Cloudy
2:00 PM 87.8 °F 89.4 °F 64.4 °F 46% 29.89 in 6.2 mi NNW 3.5 mph - N/A   Partly Cloudy
2:30 PM 87.8 °F 87.6 °F 60.8 °F 40% 29.89 in 6.2 mi NNE 1.2 mph - N/A   Partly Cloudy
3:00 PM 89.6 °F 89.5 °F 60.8 °F 38% 29.86 in 6.2 mi Variable 2.3 mph - N/A   Partly Cloudy
3:30 PM 91.4 °F 90.7 °F 59.0 °F 34% 29.86 in 6.2 mi North 2.3 mph - N/A   Partly Cloudy
4:00 PM 91.4 °F 89.9 °F 57.2 °F 31% 29.86 in 6.2 mi East 2.3 mph - N/A   Partly Cloudy
4:30 PM 93.2 °F 90.8 °F 53.6 °F 26% 29.86 in 6.2 mi WNW 4.6 mph - N/A   Partly Cloudy
5:00 PM 95.0 °F - 51.8 °F 23% 29.83 in 6.2 mi WNW 2.3 mph - N/A   Partly Cloudy
5:30 PM 95.0 °F - 48.2 °F 20% 29.83 in 6.2 mi NW 1.2 mph - N/A   Partly Cloudy
6:00 PM 95.0 °F - 50.0 °F 22% 29.83 in 6.2 mi NNE 1.2 mph - N/A   Partly Cloudy
6:30 PM 96.8 °F - 51.8 °F 22% 29.83 in 6.2 mi NW 1.2 mph - N/A   Partly Cloudy
7:00 PM 95.0 °F - 50.0 °F 22% 29.80 in 6.2 mi WSW 2.3 mph - N/A   Partly Cloudy
7:30 PM 95.0 °F 92.7 °F 53.6 °F 25% 29.80 in 6.2 mi SW 4.6 mph - N/A   Partly Cloudy
8:00 PM 93.2 °F 90.8 °F 53.6 °F 26% 29.80 in - West 3.5 mph - N/A   Clear
8:30 PM 89.6 °F 91.1 °F 64.4 °F 43% 29.80 in - SW 9.2 mph - N/A   Clear
9:00 PM 87.8 °F 91.4 °F 68.0 °F 52% 29.80 in 6.2 mi SW 11.5 mph - N/A   Partly Cloudy
9:30 PM 86.0 °F 89.4 °F 68.0 °F 55% 29.80 in - WSW 10.4 mph - N/A   Clear
10:00 PM 84.2 °F 87.3 °F 68.0 °F 58% 29.83 in - WSW 9.2 mph - N/A   Clear
10:30 PM 84.2 °F 87.3 °F 68.0 °F 58% 29.83 in - WSW 11.5 mph - N/A   Clear
11:00 PM 82.4 °F 85.4 °F 68.0 °F 62% 29.86 in - SW 10.4 mph - N/A   Clear
11:30 PM 82.4 °F 85.4 °F 68.0 °F 62% 29.86 in - WSW 9.2 mph - N/A   Clear